contact:dominique.lefevre@mio.osupytheas.fr, maurice.libes@osupytheas.fr, didier.mallarino@osupytheas.fr
Project:EMSO http://www.emso-fr.org/EMSO-France
Depth: 2436.0 m
Title:EMSO Ligure Ouest : Data MII capteur CSTAR
DateTime,Latitude,Longitude,Instrument_Serial,Reference_Counts,Signal_Counts,Corrected_Signal_raw_counts,Calculated_Beam_c_inverse_meters,Internal_thermistor_counts
DateTime,Latitude,Longitude,Instrument_Serial,Reference_Counts,Signal_Counts,Corrected_Signal_raw_counts,Calculated_Beam_c_inverse_meters,Internal_thermistor_counts
2022-04-11T00:02:13,42.805,6.029,CST-1368DR,4808,5645,12524,0.883,551
2022-04-11T00:05:15,42.805,6.029,CST-1368DR,4808,5661,12560,0.871,551
2022-04-11T00:08:16,42.805,6.029,CST-1368DR,4808,5652,12542,0.877,551
2022-04-11T00:11:18,42.805,6.029,CST-1368DR,4808,5658,12553,0.873,550
2022-04-11T00:14:19,42.805,6.029,CST-1368DR,4808,5671,12582,0.864,551
2022-04-11T00:17:21,42.805,6.029,CST-1368DR,4808,5655,12547,0.875,551
2022-04-11T00:20:23,42.805,6.029,CST-1368DR,4808,5644,12523,0.883,551
2022-04-11T00:23:24,42.805,6.029,CST-1368DR,4808,5654,12545,0.876,551
2022-04-11T00:26:26,42.805,6.029,CST-1368DR,4808,5642,12518,0.885,551
2022-04-11T00:29:27,42.805,6.029,CST-1368DR,4808,5643,12520,0.884,551
2022-04-11T00:32:29,42.805,6.029,CST-1368DR,4808,5636,12505,0.889,551
2022-04-11T00:35:31,42.805,6.029,CST-1368DR,4808,5646,12527,0.882,551
2022-04-11T00:38:32,42.805,6.029,CST-1368DR,4808,5645,12524,0.883,551
2022-04-11T00:41:34,42.805,6.029,CST-1368DR,4808,5651,12539,0.878,551
2022-04-11T00:44:35,42.805,6.029,CST-1368DR,4808,5643,12520,0.884,551
2022-04-11T00:47:37,42.805,6.029,CST-1368DR,4808,5650,12537,0.878,551
2022-04-11T00:50:38,42.805,6.029,CST-1368DR,4808,5661,12560,0.871,551
2022-04-11T00:53:40,42.805,6.029,CST-1368DR,4808,5654,12544,0.876,551
2022-04-11T00:56:42,42.805,6.029,CST-1368DR,4808,5639,12513,0.886,551
2022-04-11T00:59:43,42.805,6.029,CST-1368DR,4808,5638,12509,0.887,551
2022-04-11T01:02:45,42.805,6.029,CST-1368DR,4807,5634,12502,0.890,551
2022-04-11T01:05:46,42.805,6.029,CST-1368DR,4808,5642,12519,0.884,551
2022-04-11T01:08:48,42.805,6.029,CST-1368DR,4807,5631,12497,0.891,551
2022-04-11T01:11:50,42.805,6.029,CST-1368DR,4807,5630,12495,0.892,551
2022-04-11T01:14:51,42.805,6.029,CST-1368DR,4807,5634,12504,0.889,551
2022-04-11T01:17:53,42.805,6.029,CST-1368DR,4807,5650,12538,0.878,551
2022-04-11T01:20:54,42.805,6.029,CST-1368DR,4807,5616,12464,0.902,551
2022-04-11T01:23:56,42.805,6.029,CST-1368DR,4807,5627,12488,0.894,551
2022-04-11T01:26:57,42.805,6.029,CST-1368DR,4807,5624,12480,0.897,551
2022-04-11T01:29:59,42.805,6.029,CST-1368DR,4807,5621,12474,0.899,551
2022-04-11T01:33:01,42.805,6.029,CST-1368DR,4808,5661,12561,0.871,551
2022-04-11T01:36:02,42.805,6.029,CST-1368DR,4808,5662,12563,0.870,551
2022-04-11T01:39:04,42.805,6.029,CST-1368DR,4808,5645,12526,0.882,551
2022-04-11T01:42:05,42.805,6.029,CST-1368DR,4808,5662,12563,0.870,551
2022-04-11T01:45:07,42.805,6.029,CST-1368DR,4808,5665,12569,0.868,551
2022-04-11T01:48:08,42.805,6.029,CST-1368DR,4808,5663,12565,0.870,551
2022-04-11T01:51:10,42.805,6.029,CST-1368DR,4808,5663,12565,0.870,551
2022-04-11T01:54:12,42.805,6.029,CST-1368DR,4807,5636,12508,0.888,551
2022-04-11T01:57:13,42.805,6.029,CST-1368DR,4808,5656,12549,0.875,551
2022-04-11T02:00:15,42.805,6.029,CST-1368DR,4807,5647,12533,0.880,551
2022-04-11T02:03:16,42.805,6.029,CST-1368DR,4807,5639,12515,0.885,551
2022-04-11T02:06:18,42.805,6.029,CST-1368DR,4807,5644,12525,0.882,551
2022-04-11T02:09:20,42.805,6.029,CST-1368DR,4808,5649,12533,0.880,551
2022-04-11T02:12:21,42.805,6.029,CST-1368DR,4808,5673,12586,0.863,551
2022-04-11T02:15:23,42.805,6.029,CST-1368DR,4808,5662,12563,0.870,551
2022-04-11T02:18:24,42.805,6.029,CST-1368DR,4808,5665,12569,0.868,551
2022-04-11T02:21:26,42.805,6.029,CST-1368DR,4808,5653,12544,0.876,551
2022-04-11T02:24:27,42.805,6.029,CST-1368DR,4808,5674,12589,0.862,551
2022-04-11T02:27:29,42.805,6.029,CST-1368DR,4807,5646,12530,0.881,551
2022-04-11T02:30:31,42.805,6.029,CST-1368DR,4808,5662,12562,0.870,551
2022-04-11T02:33:32,42.805,6.029,CST-1368DR,4808,5664,12568,0.869,551
2022-04-11T02:36:34,42.805,6.029,CST-1368DR,4808,5666,12573,0.867,551
2022-04-11T02:39:35,42.805,6.029,CST-1368DR,4807,5656,12551,0.874,551
2022-04-11T02:42:37,42.805,6.029,CST-1368DR,4807,5638,12512,0.886,551
2022-04-11T02:45:39,42.805,6.029,CST-1368DR,4808,5656,12550,0.874,551
2022-04-11T02:48:40,42.805,6.029,CST-1368DR,4808,5657,12552,0.874,551
2022-04-11T02:51:42,42.805,6.029,CST-1368DR,4808,5657,12551,0.874,551
2022-04-11T02:54:43,42.805,6.029,CST-1368DR,4808,5655,12547,0.875,551
2022-04-11T02:57:45,42.805,6.029,CST-1368DR,4808,5674,12590,0.862,551
2022-04-11T03:00:46,42.805,6.029,CST-1368DR,4808,5672,12585,0.863,551
2022-04-11T03:03:48,42.805,6.029,CST-1368DR,4807,5650,12538,0.878,551
2022-04-11T03:06:50,42.805,6.029,CST-1368DR,4808,5659,12556,0.872,551
2022-04-11T03:09:51,42.805,6.029,CST-1368DR,4808,5657,12552,0.874,551
2022-04-11T03:12:53,42.805,6.029,CST-1368DR,4808,5654,12546,0.876,551
2022-04-11T03:15:54,42.805,6.029,CST-1368DR,4808,5674,12590,0.862,551
2022-04-11T03:18:56,42.805,6.029,CST-1368DR,4808,5673,12588,0.862,551
2022-04-11T03:21:57,42.805,6.029,CST-1368DR,4807,5654,12547,0.875,551
2022-04-11T03:24:59,42.805,6.029,CST-1368DR,4808,5671,12583,0.864,551
2022-04-11T03:28:01,42.805,6.029,CST-1368DR,4808,5679,12600,0.858,551
2022-04-11T03:31:02,42.805,6.029,CST-1368DR,4807,5652,12543,0.877,551
2022-04-11T03:34:04,42.805,6.029,CST-1368DR,4807,5655,12549,0.875,551
2022-04-11T03:37:05,42.805,6.029,CST-1368DR,4808,5671,12582,0.864,551
2022-04-11T03:40:07,42.805,6.029,CST-1368DR,4808,5664,12567,0.869,551
2022-04-11T03:43:09,42.805,6.029,CST-1368DR,4807,5654,12548,0.875,551
2022-04-11T03:46:10,42.805,6.029,CST-1368DR,4807,5657,12554,0.873,551
2022-04-11T03:49:12,42.805,6.029,CST-1368DR,4807,5653,12546,0.876,551
2022-04-11T03:52:13,42.805,6.029,CST-1368DR,4807,5667,12577,0.866,551
2022-04-11T03:55:15,42.805,6.029,CST-1368DR,4807,5662,12565,0.870,551
2022-04-11T03:58:16,42.805,6.029,CST-1368DR,4807,5658,12557,0.872,551
2022-04-11T04:01:18,42.805,6.029,CST-1368DR,4808,5667,12575,0.866,551
2022-04-11T04:04:20,42.805,6.029,CST-1368DR,4808,5651,12539,0.878,551
2022-04-11T04:07:21,42.805,6.029,CST-1368DR,4807,5652,12543,0.877,551
2022-04-11T04:10:23,42.805,6.029,CST-1368DR,4808,5648,12531,0.880,551
2022-04-11T04:13:24,42.805,6.029,CST-1368DR,4807,5647,12531,0.880,551
2022-04-11T04:16:26,42.805,6.029,CST-1368DR,4808,5677,12596,0.860,551
2022-04-11T04:19:27,42.805,6.029,CST-1368DR,4807,5650,12538,0.878,551
2022-04-11T04:22:29,42.805,6.029,CST-1368DR,4807,5641,12520,0.884,551
2022-04-11T04:25:31,42.805,6.029,CST-1368DR,4807,5666,12574,0.867,551
2022-04-11T04:28:32,42.805,6.029,CST-1368DR,4807,5665,12573,0.867,551
2022-04-11T04:31:34,42.805,6.029,CST-1368DR,4808,5662,12563,0.870,551
2022-04-11T04:34:35,42.805,6.029,CST-1368DR,4807,5664,12571,0.868,551
2022-04-11T04:37:37,42.805,6.029,CST-1368DR,4807,5640,12517,0.885,551
2022-04-11T04:40:39,42.805,6.029,CST-1368DR,4807,5656,12552,0.874,551
2022-04-11T04:43:40,42.805,6.029,CST-1368DR,4807,5660,12561,0.871,551
2022-04-11T04:46:42,42.805,6.029,CST-1368DR,4807,5640,12516,0.885,551
2022-04-11T04:49:43,42.805,6.029,CST-1368DR,4807,5653,12546,0.876,551
2022-04-11T04:52:45,42.805,6.029,CST-1368DR,4807,5640,12516,0.885,551
2022-04-11T04:55:46,42.805,6.029,CST-1368DR,4807,5653,12545,0.876,551
2022-04-11T04:58:48,42.805,6.029,CST-1368DR,4807,5671,12585,0.863,551
2022-04-11T05:01:50,42.805,6.029,CST-1368DR,4807,5670,12583,0.864,551
2022-04-11T05:04:51,42.805,6.029,CST-1368DR,4807,5644,12525,0.882,551
2022-04-11T05:07:53,42.805,6.029,CST-1368DR,4807,5658,12556,0.872,551
2022-04-11T05:10:54,42.805,6.029,CST-1368DR,4807,5657,12553,0.873,551
2022-04-11T05:13:56,42.805,6.029,CST-1368DR,4807,5672,12588,0.862,551
2022-04-11T05:16:57,42.805,6.029,CST-1368DR,4807,5647,12531,0.880,551
2022-04-11T05:19:59,42.805,6.029,CST-1368DR,4807,5648,12535,0.879,551
2022-04-11T05:23:01,42.805,6.029,CST-1368DR,4807,5646,12530,0.881,551
2022-04-11T05:26:02,42.805,6.029,CST-1368DR,4807,5630,12494,0.892,551
2022-04-11T05:29:04,42.805,6.029,CST-1368DR,4807,5652,12543,0.877,551
2022-04-11T05:32:05,42.805,6.029,CST-1368DR,4807,5625,12484,0.895,551
2022-04-11T05:35:07,42.805,6.029,CST-1368DR,4807,5631,12497,0.891,551
2022-04-11T05:38:09,42.805,6.029,CST-1368DR,4807,5630,12494,0.892,550
2022-04-11T05:41:10,42.805,6.029,CST-1368DR,4807,5639,12515,0.885,551
2022-04-11T05:44:12,42.805,6.029,CST-1368DR,4807,5636,12508,0.888,551
2022-04-11T05:47:13,42.805,6.029,CST-1368DR,4807,5657,12553,0.873,551
2022-04-11T05:50:15,42.805,6.029,CST-1368DR,4807,5655,12550,0.874,551
2022-04-11T05:53:16,42.805,6.029,CST-1368DR,4807,5650,12539,0.878,551
2022-04-11T05:56:18,42.805,6.029,CST-1368DR,4807,5649,12536,0.879,551
2022-04-11T05:59:20,42.805,6.029,CST-1368DR,4807,5648,12534,0.879,551
2022-04-11T06:02:21,42.805,6.029,CST-1368DR,4807,5647,12533,0.880,551
2022-04-11T06:05:23,42.805,6.029,CST-1368DR,4807,5630,12495,0.892,551
2022-04-11T06:08:24,42.805,6.029,CST-1368DR,4807,5633,12502,0.890,551
2022-04-11T06:11:26,42.805,6.029,CST-1368DR,4807,5636,12509,0.887,551
2022-04-11T06:14:28,42.805,6.029,CST-1368DR,4807,5655,12550,0.874,551
2022-04-11T06:17:29,42.805,6.029,CST-1368DR,4807,5664,12569,0.868,551
2022-04-11T06:20:31,42.805,6.029,CST-1368DR,4807,5659,12559,0.871,551
2022-04-11T06:23:32,42.805,6.029,CST-1368DR,4807,5649,12537,0.878,551
2022-04-11T06:26:34,42.805,6.029,CST-1368DR,4807,5645,12527,0.882,551
2022-04-11T06:29:35,42.805,6.029,CST-1368DR,4807,5641,12520,0.884,551
2022-04-11T06:32:37,42.805,6.029,CST-1368DR,4807,5640,12517,0.885,551
2022-04-11T06:35:39,42.805,6.029,CST-1368DR,4807,5645,12527,0.882,551
2022-04-11T06:38:40,42.805,6.029,CST-1368DR,4807,5653,12546,0.876,551
2022-04-11T06:41:42,42.805,6.029,CST-1368DR,4807,5637,12511,0.887,551
2022-04-11T06:44:43,42.805,6.029,CST-1368DR,4807,5622,12476,0.898,551
2022-04-11T06:47:45,42.805,6.029,CST-1368DR,4807,5655,12551,0.874,551
2022-04-11T06:50:46,42.805,6.029,CST-1368DR,4807,5644,12526,0.882,551
2022-04-11T06:53:48,42.805,6.029,CST-1368DR,4807,5627,12489,0.894,551
2022-04-11T06:56:50,42.805,6.029,CST-1368DR,4807,5632,12499,0.891,551
2022-04-11T06:59:51,42.805,6.029,CST-1368DR,4807,5647,12532,0.880,551
2022-04-11T07:02:53,42.805,6.029,CST-1368DR,4807,5631,12497,0.891,551
2022-04-11T07:05:54,42.805,6.029,CST-1368DR,4807,5639,12514,0.886,551
2022-04-11T07:08:56,42.805,6.029,CST-1368DR,4807,5626,12486,0.895,551
2022-04-11T07:11:58,42.805,6.029,CST-1368DR,4807,5639,12514,0.886,551
2022-04-11T07:14:59,42.805,6.029,CST-1368DR,4807,5651,12541,0.877,551
2022-04-11T07:18:01,42.805,6.029,CST-1368DR,4807,5651,12542,0.877,551
2022-04-11T07:21:02,42.805,6.029,CST-1368DR,4807,5635,12505,0.889,551
2022-04-11T07:24:04,42.805,6.029,CST-1368DR,4807,5637,12511,0.887,551
2022-04-11T07:27:05,42.805,6.029,CST-1368DR,4807,5641,12519,0.884,551
2022-04-11T07:30:07,42.805,6.029,CST-1368DR,4807,5659,12558,0.872,551
2022-04-11T07:33:09,42.805,6.029,CST-1368DR,4807,5650,12538,0.878,551
2022-04-11T07:36:10,42.805,6.029,CST-1368DR,4807,5653,12545,0.876,551
2022-04-11T07:39:12,42.805,6.029,CST-1368DR,4807,5664,12570,0.868,551
2022-04-11T07:42:13,42.805,6.029,CST-1368DR,4807,5638,12512,0.886,551
2022-04-11T07:45:15,42.805,6.029,CST-1368DR,4807,5633,12500,0.890,551
2022-04-11T07:48:16,42.805,6.029,CST-1368DR,4807,5633,12501,0.890,551
2022-04-11T07:51:18,42.805,6.029,CST-1368DR,4807,5638,12512,0.886,551
2022-04-11T07:54:20,42.805,6.029,CST-1368DR,4807,5642,12521,0.884,551
2022-04-11T07:57:21,42.805,6.029,CST-1368DR,4807,5637,12510,0.887,551
2022-04-11T08:00:23,42.805,6.029,CST-1368DR,4807,5631,12496,0.892,551
2022-04-11T08:03:24,42.805,6.029,CST-1368DR,4807,5621,12475,0.898,551
2022-04-11T08:06:26,42.805,6.029,CST-1368DR,4807,5639,12515,0.885,551
2022-04-11T08:09:28,42.805,6.029,CST-1368DR,4807,5633,12502,0.890,551
2022-04-11T08:12:29,42.805,6.029,CST-1368DR,4807,5623,12480,0.897,551
2022-04-11T08:15:31,42.805,6.029,CST-1368DR,4807,5627,12487,0.894,551
2022-04-11T08:18:32,42.805,6.029,CST-1368DR,4807,5632,12499,0.891,551
2022-04-11T08:21:34,42.805,6.029,CST-1368DR,4807,5614,12459,0.903,551
2022-04-11T08:24:35,42.805,6.029,CST-1368DR,4807,5623,12479,0.897,551
2022-04-11T08:27:37,42.805,6.029,CST-1368DR,4807,5628,12490,0.893,551
2022-04-11T08:30:39,42.805,6.029,CST-1368DR,4807,5630,12495,0.892,551
2022-04-11T08:33:40,42.805,6.029,CST-1368DR,4807,5623,12479,0.897,551
2022-04-11T08:36:42,42.805,6.029,CST-1368DR,4807,5623,12479,0.897,551
2022-04-11T08:39:43,42.805,6.029,CST-1368DR,4807,5623,12479,0.897,551
2022-04-11T08:42:45,42.805,6.029,CST-1368DR,4807,5638,12512,0.886,551
2022-04-11T08:45:46,42.805,6.029,CST-1368DR,4807,5640,12516,0.885,551
2022-04-11T08:48:48,42.805,6.029,CST-1368DR,4807,5624,12482,0.896,551
2022-04-11T08:51:50,42.805,6.029,CST-1368DR,4807,5630,12495,0.892,551
2022-04-11T08:54:51,42.805,6.029,CST-1368DR,4807,5659,12558,0.872,551
2022-04-11T08:57:53,42.805,6.029,CST-1368DR,4807,5620,12471,0.900,551
2022-04-11T09:00:54,42.805,6.029,CST-1368DR,4807,5642,12521,0.884,551
2022-04-11T09:03:56,42.805,6.029,CST-1368DR,4807,5641,12519,0.884,551
2022-04-11T09:06:58,42.805,6.029,CST-1368DR,4807,5633,12500,0.890,551
2022-04-11T09:09:59,42.805,6.029,CST-1368DR,4807,5633,12500,0.890,551
2022-04-11T09:13:01,42.805,6.029,CST-1368DR,4807,5633,12502,0.890,551
2022-04-11T09:16:02,42.805,6.029,CST-1368DR,4807,5618,12467,0.901,551
2022-04-11T09:19:04,42.805,6.029,CST-1368DR,4807,5617,12466,0.901,551
2022-04-11T09:22:05,42.805,6.029,CST-1368DR,4807,5623,12478,0.897,551
2022-04-11T09:25:07,42.805,6.029,CST-1368DR,4807,5628,12490,0.893,551
2022-04-11T09:28:09,42.805,6.029,CST-1368DR,4807,5652,12544,0.876,551
2022-04-11T09:31:10,42.805,6.029,CST-1368DR,4807,5646,12531,0.880,551
2022-04-11T09:34:12,42.805,6.029,CST-1368DR,4807,5634,12504,0.889,551
2022-04-11T09:37:13,42.805,6.029,CST-1368DR,4807,5654,12547,0.875,551
2022-04-11T09:40:15,42.805,6.029,CST-1368DR,4807,5637,12510,0.887,551
2022-04-11T09:43:16,42.805,6.029,CST-1368DR,4807,5633,12501,0.890,551
2022-04-11T09:46:18,42.805,6.029,CST-1368DR,4807,5628,12491,0.893,551
2022-04-11T09:49:20,42.805,6.029,CST-1368DR,4807,5655,12550,0.874,551
2022-04-11T09:52:21,42.805,6.029,CST-1368DR,4807,5652,12543,0.877,551
2022-04-11T09:55:23,42.805,6.029,CST-1368DR,4807,5643,12524,0.883,551
2022-04-11T09:58:24,42.805,6.029,CST-1368DR,4807,5650,12540,0.877,551
2022-04-11T10:01:26,42.805,6.029,CST-1368DR,4807,5651,12540,0.877,551
2022-04-11T10:04:28,42.805,6.029,CST-1368DR,4807,5649,12536,0.879,551
2022-04-11T10:07:29,42.805,6.029,CST-1368DR,4807,5634,12504,0.889,551
2022-04-11T10:10:31,42.805,6.029,CST-1368DR,4807,5638,12511,0.887,551
2022-04-11T10:13:32,42.805,6.029,CST-1368DR,4807,5647,12532,0.880,551
2022-04-11T10:16:34,42.805,6.029,CST-1368DR,4807,5643,12524,0.883,551
2022-04-11T10:19:35,42.805,6.029,CST-1368DR,4807,5639,12515,0.885,551
2022-04-11T10:22:37,42.805,6.029,CST-1368DR,4807,5637,12511,0.887,551
2022-04-11T10:25:39,42.805,6.029,CST-1368DR,4807,5637,12510,0.887,551
2022-04-11T10:28:40,42.805,6.029,CST-1368DR,4807,5634,12503,0.889,551
2022-04-11T10:31:42,42.805,6.029,CST-1368DR,4807,5635,12505,0.889,551
2022-04-11T10:34:43,42.805,6.029,CST-1368DR,4807,5638,12513,0.886,551
2022-04-11T10:37:45,42.805,6.029,CST-1368DR,4807,5641,12518,0.885,551
2022-04-11T10:40:47,42.805,6.029,CST-1368DR,4807,5659,12558,0.872,551
2022-04-11T10:43:48,42.805,6.029,CST-1368DR,4807,5655,12550,0.874,551
2022-04-11T10:46:50,42.805,6.029,CST-1368DR,4807,5646,12531,0.880,551
2022-04-11T10:49:51,42.805,6.029,CST-1368DR,4807,5643,12524,0.883,551
2022-04-11T10:52:53,42.805,6.029,CST-1368DR,4807,5664,12570,0.868,551
2022-04-11T10:55:54,42.805,6.029,CST-1368DR,4807,5641,12519,0.884,551
2022-04-11T10:58:56,42.805,6.029,CST-1368DR,4807,5642,12521,0.884,551
2022-04-11T11:01:58,42.805,6.029,CST-1368DR,4807,5642,12520,0.884,551
2022-04-11T11:04:59,42.805,6.029,CST-1368DR,4807,5641,12519,0.884,551
2022-04-11T11:08:01,42.805,6.029,CST-1368DR,4807,5641,12519,0.884,551
2022-04-11T11:11:02,42.805,6.029,CST-1368DR,4807,5624,12481,0.896,551
2022-04-11T11:14:04,42.805,6.029,CST-1368DR,4807,5640,12517,0.885,551
2022-04-11T11:17:05,42.805,6.029,CST-1368DR,4807,5632,12499,0.891,551
2022-04-11T11:20:07,42.805,6.029,CST-1368DR,4807,5647,12532,0.880,551
2022-04-11T11:23:09,42.805,6.029,CST-1368DR,4807,5636,12509,0.887,551
2022-04-11T11:26:10,42.805,6.029,CST-1368DR,4807,5637,12511,0.887,551
2022-04-11T11:29:12,42.805,6.029,CST-1368DR,4807,5637,12510,0.887,551
2022-04-11T11:32:13,42.805,6.029,CST-1368DR,4807,5639,12515,0.885,551
2022-04-11T11:35:15,42.805,6.029,CST-1368DR,4807,5644,12525,0.882,551
2022-04-11T11:38:17,42.805,6.029,CST-1368DR,4807,5649,12536,0.879,551
2022-04-11T11:41:18,42.805,6.029,CST-1368DR,4807,5648,12535,0.879,551
2022-04-11T11:44:20,42.805,6.029,CST-1368DR,4807,5645,12529,0.881,551
2022-04-11T11:47:21,42.805,6.029,CST-1368DR,4807,5644,12526,0.882,551
2022-04-11T11:50:23,42.805,6.029,CST-1368DR,4807,5639,12515,0.885,551
2022-04-11T11:53:24,42.805,6.029,CST-1368DR,4807,5647,12532,0.880,551
2022-04-11T11:56:26,42.805,6.029,CST-1368DR,4807,5630,12494,0.892,551
2022-04-11T11:59:28,42.805,6.029,CST-1368DR,4807,5638,12512,0.886,551
2022-04-11T12:02:29,42.805,6.029,CST-1368DR,4807,5644,12526,0.882,551
2022-04-11T12:05:31,42.805,6.029,CST-1368DR,4807,5656,12551,0.874,551
2022-04-11T12:08:32,42.805,6.029,CST-1368DR,4807,5640,12516,0.885,551
2022-04-11T12:11:34,42.805,6.029,CST-1368DR,4807,5615,12461,0.903,551
2022-04-11T12:14:35,42.805,6.029,CST-1368DR,4807,5639,12514,0.886,551
2022-04-11T12:17:37,42.805,6.029,CST-1368DR,4807,5627,12489,0.894,551
2022-04-11T12:20:39,42.805,6.029,CST-1368DR,4807,5632,12498,0.891,551
2022-04-11T12:23:40,42.805,6.029,CST-1368DR,4807,5633,12502,0.890,551
2022-04-11T12:26:42,42.805,6.029,CST-1368DR,4807,5617,12466,0.901,551
2022-04-11T12:29:43,42.805,6.029,CST-1368DR,4807,5629,12493,0.893,551
2022-04-11T12:32:45,42.805,6.029,CST-1368DR,4807,5624,12481,0.896,551
2022-04-11T12:35:47,42.805,6.029,CST-1368DR,4807,5631,12496,0.892,551
2022-04-11T12:38:48,42.805,6.029,CST-1368DR,4807,5602,12431,0.912,551
2022-04-11T12:41:50,42.805,6.029,CST-1368DR,4807,5627,12488,0.894,551
2022-04-11T12:44:51,42.805,6.029,CST-1368DR,4807,5634,12504,0.889,551
2022-04-11T12:47:53,42.805,6.029,CST-1368DR,4807,5632,12499,0.891,551
2022-04-11T12:50:54,42.805,6.029,CST-1368DR,4807,5630,12494,0.892,551
2022-04-11T12:53:56,42.805,6.029,CST-1368DR,4807,5627,12489,0.894,551
2022-04-11T12:56:58,42.805,6.029,CST-1368DR,4807,5640,12517,0.885,551
2022-04-11T12:59:59,42.805,6.029,CST-1368DR,4807,5639,12514,0.886,551
2022-04-11T13:03:01,42.805,6.029,CST-1368DR,4807,5632,12499,0.891,551
2022-04-11T13:06:02,42.805,6.029,CST-1368DR,4807,5622,12477,0.898,551
2022-04-11T13:09:04,42.805,6.029,CST-1368DR,4807,5631,12497,0.891,551
2022-04-11T13:12:05,42.805,6.029,CST-1368DR,4807,5621,12475,0.898,551
2022-04-11T13:15:07,42.805,6.029,CST-1368DR,4807,5632,12498,0.891,551
2022-04-11T13:18:09,42.805,6.029,CST-1368DR,4807,5636,12507,0.888,551
2022-04-11T13:21:10,42.805,6.029,CST-1368DR,4807,5632,12499,0.891,551
2022-04-11T13:24:12,42.805,6.029,CST-1368DR,4807,5632,12499,0.891,551
2022-04-11T13:27:13,42.805,6.029,CST-1368DR,4807,5630,12495,0.892,551
2022-04-11T13:30:15,42.805,6.029,CST-1368DR,4807,5634,12503,0.889,551
2022-04-11T13:33:17,42.805,6.029,CST-1368DR,4807,5627,12489,0.894,551
2022-04-11T13:36:18,42.805,6.029,CST-1368DR,4807,5625,12484,0.895,551
2022-04-11T13:39:20,42.805,6.029,CST-1368DR,4807,5633,12501,0.890,551
2022-04-11T13:42:21,42.805,6.029,CST-1368DR,4807,5627,12489,0.894,551
2022-04-11T13:45:23,42.805,6.029,CST-1368DR,4807,5635,12505,0.889,551
2022-04-11T13:48:24,42.805,6.029,CST-1368DR,4807,5627,12487,0.894,551
2022-04-11T13:51:26,42.805,6.029,CST-1368DR,4807,5618,12467,0.901,551
2022-04-11T13:54:28,42.805,6.029,CST-1368DR,4807,5631,12496,0.892,551
2022-04-11T13:57:29,42.805,6.029,CST-1368DR,4807,5628,12490,0.893,551
2022-04-11T14:00:31,42.805,6.029,CST-1368DR,4806,5623,12480,0.897,551
2022-04-11T14:03:32,42.805,6.029,CST-1368DR,4807,5610,12451,0.906,551
2022-04-11T14:06:34,42.805,6.029,CST-1368DR,4807,5633,12502,0.890,551
2022-04-11T14:09:35,42.805,6.029,CST-1368DR,4807,5621,12474,0.899,551
2022-04-11T14:12:37,42.805,6.029,CST-1368DR,4806,5631,12499,0.891,551
2022-04-11T14:15:39,42.805,6.029,CST-1368DR,4807,5624,12480,0.897,551
2022-04-11T14:18:40,42.805,6.029,CST-1368DR,4807,5624,12480,0.897,551
2022-04-11T14:21:42,42.805,6.029,CST-1368DR,4807,5625,12483,0.896,551
2022-04-11T14:24:43,42.805,6.029,CST-1368DR,4807,5636,12507,0.888,551
2022-04-11T14:27:45,42.805,6.029,CST-1368DR,4807,5630,12494,0.892,551
2022-04-11T14:30:47,42.805,6.029,CST-1368DR,4807,5633,12501,0.890,551
2022-04-11T14:33:48,42.805,6.029,CST-1368DR,4807,5630,12494,0.892,551
2022-04-11T14:36:50,42.805,6.029,CST-1368DR,4806,5613,12459,0.903,551
2022-04-11T14:39:51,42.805,6.029,CST-1368DR,4806,5607,12446,0.908,551
2022-04-11T14:42:53,42.805,6.029,CST-1368DR,4806,5613,12459,0.903,551
2022-04-11T14:45:54,42.805,6.029,CST-1368DR,4807,5635,12506,0.888,551
2022-04-11T14:48:56,42.805,6.029,CST-1368DR,4806,5632,12500,0.890,551
2022-04-11T14:51:58,42.805,6.029,CST-1368DR,4806,5618,12471,0.900,551
2022-04-11T14:54:59,42.805,6.029,CST-1368DR,4806,5628,12493,0.893,551
2022-04-11T14:58:01,42.805,6.029,CST-1368DR,4806,5621,12476,0.898,551
2022-04-11T15:01:02,42.805,6.029,CST-1368DR,4806,5627,12490,0.893,551
2022-04-11T15:04:04,42.805,6.029,CST-1368DR,4806,5622,12479,0.897,551
2022-04-11T15:07:05,42.805,6.029,CST-1368DR,4806,5628,12492,0.893,551
2022-04-11T15:10:07,42.805,6.029,CST-1368DR,4806,5619,12473,0.899,551
2022-04-11T15:13:09,42.805,6.029,CST-1368DR,4806,5615,12464,0.902,551
2022-04-11T15:16:10,42.805,6.029,CST-1368DR,4806,5618,12470,0.900,551
2022-04-11T15:19:12,42.805,6.029,CST-1368DR,4806,5620,12475,0.898,551
2022-04-11T15:22:13,42.805,6.029,CST-1368DR,4806,5625,12485,0.895,551
2022-04-11T15:25:15,42.805,6.029,CST-1368DR,4806,5614,12461,0.903,551
2022-04-11T15:28:17,42.805,6.029,CST-1368DR,4806,5612,12458,0.904,551
2022-04-11T15:31:18,42.805,6.029,CST-1368DR,4806,5618,12470,0.900,551
2022-04-11T15:34:20,42.805,6.029,CST-1368DR,4806,5614,12462,0.902,551
2022-04-11T15:37:21,42.805,6.029,CST-1368DR,4806,5614,12461,0.903,551
2022-04-11T15:40:23,42.805,6.029,CST-1368DR,4806,5622,12478,0.897,551
2022-04-11T15:43:24,42.805,6.029,CST-1368DR,4806,5616,12466,0.901,551
2022-04-11T15:46:26,42.805,6.029,CST-1368DR,4806,5621,12477,0.898,551
2022-04-11T15:49:28,42.805,6.029,CST-1368DR,4806,5620,12474,0.899,551
2022-04-11T15:52:29,42.805,6.029,CST-1368DR,4807,5618,12469,0.900,551
2022-04-11T15:55:31,42.805,6.029,CST-1368DR,4806,5620,12474,0.899,551
2022-04-11T15:58:32,42.805,6.029,CST-1368DR,4806,5623,12482,0.896,551
2022-04-11T16:01:34,42.805,6.029,CST-1368DR,4806,5613,12459,0.903,551
2022-04-11T16:04:36,42.805,6.029,CST-1368DR,4806,5617,12468,0.901,551
2022-04-11T16:07:37,42.805,6.029,CST-1368DR,4806,5613,12459,0.903,551
2022-04-11T16:10:39,42.805,6.029,CST-1368DR,4806,5614,12461,0.903,551
2022-04-11T16:13:40,42.805,6.029,CST-1368DR,4806,5615,12463,0.902,551
2022-04-11T16:16:42,42.805,6.029,CST-1368DR,4806,5620,12474,0.899,551
2022-04-11T16:19:43,42.805,6.029,CST-1368DR,4806,5622,12480,0.897,551
2022-04-11T16:22:45,42.805,6.029,CST-1368DR,4806,5620,12475,0.898,551
2022-04-11T16:25:47,42.805,6.029,CST-1368DR,4806,5617,12467,0.901,551
2022-04-11T16:28:48,42.805,6.029,CST-1368DR,4806,5619,12472,0.899,551
2022-04-11T16:31:50,42.805,6.029,CST-1368DR,4806,5622,12478,0.897,551
2022-04-11T16:34:51,42.805,6.029,CST-1368DR,4806,5628,12492,0.893,551
2022-04-11T16:37:53,42.805,6.029,CST-1368DR,4806,5616,12465,0.901,551
2022-04-11T16:40:54,42.805,6.029,CST-1368DR,4806,5615,12463,0.902,551
2022-04-11T16:43:56,42.805,6.029,CST-1368DR,4806,5614,12461,0.903,551
2022-04-11T16:46:58,42.805,6.029,CST-1368DR,4806,5621,12477,0.898,551
2022-04-11T16:49:59,42.805,6.029,CST-1368DR,4806,5611,12454,0.905,551
2022-04-11T16:53:01,42.805,6.029,CST-1368DR,4806,5609,12451,0.906,551